TimeCDT,TemperatureF,Dew PointF,Humidity,Sea Level PressureIn,VisibilityMPH,Wind Direction,Wind SpeedMPH,Gust SpeedMPH,PrecipitationIn,Events,Conditions,WindDirDegrees,DateUTC
12:15 AM,66.4,35.6,32,30.04,10.0,North,9.2,19.6,N/A,,Mostly Cloudy,10,2013-03-11 05:15:00
12:35 AM,66.2,32.5,29,30.04,10.0,NNE,11.5,18.4,N/A,,Overcast,20,2013-03-11 05:35:00
12:55 AM,65.7,31.1,27,30.05,10.0,NNE,17.3,26.5,N/A,,Overcast,20,2013-03-11 05:55:00
1:15 AM,64.8,31.5,29,30.06,10.0,NNE,15.0,24.2,N/A,,Mostly Cloudy,20,2013-03-11 06:15:00
1:35 AM,63.7,31.8,30,30.06,10.0,NNE,10.4,-,N/A,,Overcast,20,2013-03-11 06:35:00
1:55 AM,63.0,31.8,31,30.06,10.0,North,8.1,-,N/A,,Scattered Clouds,10,2013-03-11 06:55:00
2:15 AM,62.2,31.1,31,30.07,10.0,North,6.9,-,N/A,,Clear,10,2013-03-11 07:15:00
2:35 AM,61.7,30.9,31,30.07,10.0,North,8.1,-,N/A,,Clear,10,2013-03-11 07:35:00
2:55 AM,60.8,30.2,31,30.07,10.0,North,8.1,-,N/A,,Clear,10,2013-03-11 07:55:00
3:15 AM,59.9,29.5,32,30.07,10.0,North,5.8,-,N/A,,Clear,360,2013-03-11 08:15:00
3:55 AM,58.1,29.8,34,30.07,10.0,North,5.8,-,N/A,,Clear,360,2013-03-11 08:55:00
4:15 AM,57.7,29.3,34,30.07,10.0,North,8.1,-,N/A,,Clear,360,2013-03-11 09:15:00
4:35 AM,57.6,29.3,34,30.07,10.0,North,8.1,-,N/A,,Clear,360,2013-03-11 09:35:00
4:55 AM,56.5,29.3,35,30.07,10.0,North,5.8,-,N/A,,Clear,360,2013-03-11 09:55:00
5:15 AM,55.6,30.2,38,30.08,10.0,North,6.9,-,N/A,,Clear,350,2013-03-11 10:15:00
5:35 AM,55.4,29.8,38,30.09,10.0,North,6.9,-,N/A,,Clear,350,2013-03-11 10:35:00
5:55 AM,54.9,30.2,39,30.10,10.0,North,5.8,-,N/A,,Clear,350,2013-03-11 10:55:00
6:15 AM,54.3,31.1,41,30.11,10.0,NNW,5.8,-,N/A,,Clear,340,2013-03-11 11:15:00
6:35 AM,51.4,31.1,46,30.12,10.0,NNW,4.6,-,N/A,,Clear,340,2013-03-11 11:35:00
6:55 AM,50.4,30.9,47,30.13,10.0,NNW,4.6,-,N/A,,Clear,330,2013-03-11 11:55:00
7:15 AM,49.5,31.1,49,30.13,10.0,NNW,4.6,-,N/A,,Clear,330,2013-03-11 12:15:00
7:35 AM,48.4,31.6,52,30.15,10.0,NW,4.6,-,N/A,,Clear,320,2013-03-11 12:35:00
7:55 AM,48.4,31.8,53,30.16,10.0,NW,3.5,-,N/A,,Clear,320,2013-03-11 12:55:00
8:15 AM,49.1,32.0,52,30.16,10.0,NW,3.5,-,N/A,,Clear,320,2013-03-11 13:15:00
8:35 AM,50.2,32.7,51,30.17,10.0,NW,4.6,-,N/A,,Clear,310,2013-03-11 13:35:00
8:55 AM,52.5,32.4,46,30.18,10.0,WNW,5.8,-,N/A,,Clear,300,2013-03-11 13:55:00
9:15 AM,54.5,32.2,43,30.18,10.0,WNW,5.8,-,N/A,,Clear,300,2013-03-11 14:15:00
9:35 AM,57.7,31.8,37,30.19,10.0,NW,8.1,-,N/A,,Clear,310,2013-03-11 14:35:00
9:55 AM,60.1,32.0,35,30.19,10.0,NNW,5.8,-,N/A,,Clear,330,2013-03-11 14:55:00
10:15 AM,61.7,31.8,33,30.20,10.0,NNW,6.9,-,N/A,,Clear,330,2013-03-11 15:15:00
10:35 AM,63.3,29.7,28,30.20,10.0,NNW,5.8,-,N/A,,Clear,340,2013-03-11 15:35:00
10:55 AM,64.4,28.9,26,30.19,10.0,NNW,4.6,-,N/A,,Clear,340,2013-03-11 15:55:00
11:15 AM,65.8,28.2,24,30.19,10.0,North,4.6,-,N/A,,Clear,350,2013-03-11 16:15:00
11:35 AM,67.3,26.8,22,30.18,10.0,NNW,11.5,-,N/A,,Clear,340,2013-03-11 16:35:00
11:55 AM,68.5,24.3,19,30.18,10.0,NNW,8.1,-,N/A,,Clear,330,2013-03-11 16:55:00
12:15 PM,69.6,22.5,17,30.18,10.0,NNW,6.9,16.1,N/A,,Clear,340,2013-03-11 17:15:00
12:35 PM,71.1,20.7,15,30.18,10.0,NW,10.4,18.4,N/A,,Clear,320,2013-03-11 17:35:00
12:55 PM,72.7,19.6,13,30.16,10.0,North,9.2,19.6,N/A,,Clear,10,2013-03-11 17:55:00
1:15 PM,74.1,19.6,13,30.14,10.0,NW,15.0,21.9,N/A,,Clear,320,2013-03-11 18:15:00
1:35 PM,73.6,18.9,13,30.13,10.0,North,10.4,17.3,N/A,,Clear,350,2013-03-11 18:35:00
1:55 PM,75.7,18.5,12,30.11,10.0,NNW,12.7,18.4,N/A,,Clear,340,2013-03-11 18:55:00
2:15 PM,75.6,18.3,12,30.09,10.0,NW,10.4,-,N/A,,Clear,320,2013-03-11 19:15:00
2:35 PM,75.6,17.4,11,30.08,10.0,North,3.5,-,N/A,,Clear,360,2013-03-11 19:35:00
2:55 PM,77.5,17.4,10,30.07,10.0,NNW,13.8,19.6,N/A,,Clear,330,2013-03-11 19:55:00
3:15 PM,77.7,16.5,10,30.06,10.0,WNW,9.2,20.7,N/A,,Clear,290,2013-03-11 20:15:00
3:35 PM,78.3,16.5,10,30.04,10.0,NW,11.5,21.9,N/A,,Clear,310,2013-03-11 20:35:00
3:55 PM,78.6,16.2,10,30.03,10.0,North,10.4,19.6,N/A,,Clear,350,2013-03-11 20:55:00
4:15 PM,78.8,16.5,10,30.02,10.0,NNW,16.1,-,N/A,,Clear,340,2013-03-11 21:15:00
4:35 PM,79.2,15.1,9,30.01,10.0,NW,15.0,20.7,N/A,,Clear,310,2013-03-11 21:35:00
4:55 PM,78.8,15.6,9,30.01,10.0,North,11.5,-,N/A,,Clear,350,2013-03-11 21:55:00
5:15 PM,78.8,15.1,9,30.00,10.0,NNW,9.2,16.1,N/A,,Clear,330,2013-03-11 22:15:00
5:35 PM,78.1,14.4,9,30.00,10.0,North,9.2,-,N/A,,Clear,350,2013-03-11 22:35:00
6:15 PM,77.0,13.6,9,30.01,10.0,NW,10.4,-,N/A,,Clear,320,2013-03-11 23:15:00
6:35 PM,77.0,14.2,9,30.01,10.0,North,6.9,-,N/A,,Clear,360,2013-03-11 23:35:00
6:55 PM,75.4,15.4,10,30.01,10.0,North,4.6,-,N/A,,Clear,360,2013-03-11 23:55:00
7:15 PM,73.0,24.6,16,30.02,10.0,ESE,9.2,-,N/A,,Clear,110,2013-03-12 00:15:00
7:35 PM,70.0,32.0,25,30.03,10.0,East,6.9,-,N/A,,Clear,90,2013-03-12 00:35:00
7:55 PM,68.0,33.8,28,30.04,10.0,East,8.1,-,N/A,,Clear,100,2013-03-12 00:55:00
8:15 PM,66.4,34.3,31,30.04,10.0,ESE,9.2,-,N/A,,Clear,110,2013-03-12 01:15:00
8:35 PM,64.8,36.0,34,30.05,10.0,ESE,6.9,-,N/A,,Clear,110,2013-03-12 01:35:00
8:55 PM,63.5,35.8,36,30.07,10.0,East,5.8,-,N/A,,Clear,90,2013-03-12 01:55:00
9:15 PM,62.1,36.5,39,30.07,10.0,ESE,6.9,-,N/A,,Clear,110,2013-03-12 02:15:00
9:35 PM,60.8,37.8,42,30.08,10.0,East,5.8,-,N/A,,Clear,100,2013-03-12 02:35:00
9:55 PM,59.0,38.1,46,30.09,10.0,Calm,Calm,-,N/A,,Clear,0,2013-03-12 02:55:00
10:15 PM,58.3,38.7,48,30.10,10.0,SE,4.6,-,N/A,,Clear,140,2013-03-12 03:15:00
10:35 PM,58.1,39.2,49,30.11,10.0,SSE,6.9,-,N/A,,Clear,150,2013-03-12 03:35:00
10:55 PM,56.8,39.4,52,30.12,10.0,SSE,3.5,-,N/A,,Clear,160,2013-03-12 03:55:00
11:15 PM,56.8,39.0,51,30.12,10.0,SSE,4.6,-,N/A,,Clear,150,2013-03-12 04:15:00
11:35 PM,55.0,39.0,55,30.12,10.0,South,4.6,-,N/A,,Clear,170,2013-03-12 04:35:00
11:55 PM,54.7,38.5,54,30.12,10.0,South,5.8,-,N/A,,Clear,170,2013-03-12 04:55:00